STARLINK-11403, 63060

Orbit data source: Space-Track

STARLINK-11403, 63060 is a payload satellite owned by SpaceX/Seattle (US) in LEO that was launched on Fri, 21 Feb 2025 UTC via an FALCON 9 launch vehicle from the Air Force Eastern Test Range (AFETR). Payload-class satellites include a variety of spacecraft equipped with specific instruments for various scientific and technological missions. These include communications satellites like Starlink; space stations such as the ISS; scientific satellites like the Hubble; Earth observation satellites from companies like Planet Labs, Umbra, and HawkEye 360; GPS; miniature CubeSats for education and research; and military/defense satellites.

Loading next visibility...
Identifier
63060, 2025-035J
Orbit
LEO
Country
Flag of USUS
Related business
Manufacturer
SpaceX/Seattle
Mission
Operational Commercial Communications
Bus & Motor
STARLINK V2MD, Unknown motor
Mass
960 kg wet, ~910 kg dry
Launch date (UTC)
2025-02-21 (1 year ago)
Launch vehicle
FALCON 9
Launch site
Air Force Eastern Test Range (AFETR)
Object type
Payload
Rocket body
Debris
Shape & HBR
Box + 2 Pan, 18.1 m
Radar Cross Section
36.964 m², Large (>1 m²)

Expand to show TLE details & history
Last TLE update: 17 hours ago

TLE from 17 hours ago
0 STARLINK-11403
1 63060U 25035J   26171.20944992  .00152421  00000-0  11681-2 0  9990
2 63060  43.0015 117.4663 0001289 319.1613  40.9158 15.70872765 77348
Epoch: 2026-06-20T05:01Z
TLE epoch observation values (Epoch: 2026-06-20T05:01:36.473Z)
Latitude
Longitude
133.63698°
Altitude
355.517 km
Speed
7.698 km/s
True Right ascension
07h 49m 51s
True Declination
0° 00' 00"
Sunlit
Object was in daylight at epoch
Visualization orbit readout
Latitude
Unknown
Longitude
Unknown
Altitude
Unknown
Speed
Unknown
Apparent Right ascension
Unknown
Apparent Declination
Unknown
Sunlit
N/A
Visualization observer readout
Local Sidereal Time
08:33:32
Azimuth
Unknown
Elevation
Unknown
Doppler factor
Unknown
Orbital elements
Apogee altitude
359.251 km
Perigee altitude
357.514 km
Semi-major axis
6,736.52 km
Eccentricity
0.00013
Inclination
43.0015°
RAAN
117.4663°
Arg. of periapsis
319.1613°
True anomaly
40.92548°
Mean anomaly
40.9158°
Eccentric anomaly
40.92064°
Mean motion
3.92545 °/min
Orbital period
91.71 mins
BSTAR
0.0011681
Loading maneuver chart data...
Computing Atmospheric mass density...
Loading historical data...
Loading historical data...
Loading historical data...
Loading historical data...
Loading historical data...
Loading historical data...
Loading historical data...

Documentation

Showing up to 5 results
|